Randolph AFB, TX

5:01 PM CDT on September 21, 2017 (GMT -0500)
Randolph Air Force Base

Weather History for KRND - February, 2012

Change the Weather History Date:

Friday, February 10, 2012

  Actual Average Record
Temperature  
Mean Temperature 53 °F -  
Max Temperature 63 °F 62 °F 82 °F (2000)
Min Temperature 43 °F 44 °F 19 °F (2011)
Degree Days  
Heating Degree Days 12    
Growing Degree Days 3 (Base 50)    
Moisture  
Dew Point 49 °F    
Average Humidity 93    
Maximum Humidity 100    
Minimum Humidity 39    
Precipitation  
Precipitation 0.23 in - - ()
Sea Level Pressure  
Sea Level Pressure 30.13 in    
Wind  
Wind Speed 3 mph (NNW)    
Max Wind Speed 21 mph    
Max Gust Speed 24 mph    
Visibility 6 miles    
Events Rain    
Averages and records for this station are not official NWS values.
T = Trace of Precipitation, MM = Missing Value Source: NWS Daily Summary

Daily Weather History Graph

Daily Weather History Graph

Search for Another Location

Airport or City:

Trip Planner

Search our weather history database for the weather conditions in past years. The results will help you decide how hot, cold, wet, or windy it might be!

Date:

Astronomy

Feb. 10, 2012 Rise Set
Actual Time 7:16 AM CST 6:18 PM CST
Civil Twilight 6:52 AM CST 6:42 PM CST
Nautical Twilight 6:24 AM CST 7:10 PM CST
Astronomical Twilight 5:56 AM CST 7:38 PM CST
Moon 9:35 PM CST (2/10) 8:45 AM CST (2/10)
Length of Visible Light 11h 50m
Length of Day
11h 01m
Waning Gibbous, 90% of the Moon is Illuminated
Feb 10
Waning Gibbous
Feb 14
Last Quarter
Feb 21
New
Feb 29
First Quarter
Mar 8
Full

Hourly Weather History & Observations

Time (CST) Temp. Windchill Dew Point Humidity Pressure Visibility Wind Dir Wind Speed Gust Speed Precip Events Conditions
12:06 AM 51.8 °F - 46.4 °F 82% 30.15 in 10.0 mi SSW 3.5 mph - N/A   Overcast
12:50 AM 50.0 °F - 48.2 °F 94% 30.13 in 8.0 mi South 5.8 mph - N/A   Overcast
12:53 AM 50.0 °F - 48.2 °F 94% 30.13 in 8.0 mi South 5.8 mph - N/A   Overcast
12:55 AM 49.6 °F - 48.6 °F 96% 30.13 in 8.0 mi South 4.6 mph - N/A   Overcast
1:01 AM 50.0 °F - 48.2 °F 94% 30.13 in 8.0 mi South 3.5 mph - N/A   Overcast
1:19 AM 50.0 °F - 48.2 °F 94% 30.13 in 10.0 mi Calm Calm - N/A   Overcast
1:40 AM 50.0 °F - 50.0 °F 100% 30.13 in 10.0 mi Calm Calm - N/A   Overcast
1:55 AM 49.5 °F - 49.3 °F 99% 30.13 in 9.0 mi Calm Calm - N/A   Overcast
1:58 AM 50.0 °F - 50.0 °F 100% 30.12 in 8.0 mi Calm Calm - N/A   Overcast
2:02 AM 50.0 °F - 50.0 °F 100% 30.12 in 7.0 mi Calm Calm - N/A   Overcast
2:05 AM 50.0 °F - 50.0 °F 100% 30.12 in 7.0 mi Calm Calm - N/A   Light Drizzle
2:11 AM 50.0 °F - 50.0 °F 100% 30.12 in 6.0 mi Calm Calm - N/A Rain Light Rain
2:19 AM 50.0 °F - 48.2 °F 94% 30.12 in 5.0 mi Calm Calm - N/A   Light Drizzle
2:21 AM 50.0 °F - 48.2 °F 94% 30.12 in 4.0 mi Calm Calm - N/A   Light Drizzle
2:37 AM 50.0 °F - 48.2 °F 94% 30.11 in 4.0 mi North 4.6 mph - N/A   Light Drizzle
2:47 AM 50.0 °F - 48.2 °F 94% 30.11 in 4.0 mi North 5.8 mph - N/A   Light Drizzle
2:48 AM 50.0 °F - 48.2 °F 94% 30.11 in 4.0 mi North 4.6 mph - N/A   Light Drizzle
2:55 AM 49.1 °F - 48.9 °F 99% 30.11 in 4.0 mi North 4.6 mph - 0.00 in   Light Drizzle
3:02 AM 50.0 °F - 48.2 °F 94% 30.11 in 4.0 mi North 4.6 mph - N/A   Light Drizzle
3:04 AM 50.0 °F - 48.2 °F 94% 30.11 in 4.0 mi North 3.5 mph - N/A   Light Drizzle
3:15 AM 50.0 °F - 48.2 °F 94% 30.11 in 3.0 mi North 4.6 mph - N/A   Light Drizzle
3:17 AM 50.0 °F - 48.2 °F 94% 30.11 in 4.0 mi North 5.8 mph - N/A   Light Drizzle
3:34 AM 50.0 °F - 50.0 °F 100% 30.11 in 5.0 mi North 5.8 mph - N/A   Light Drizzle
3:36 AM 50.0 °F - 50.0 °F 100% 30.11 in 5.0 mi North 5.8 mph - N/A   Light Drizzle
3:42 AM 50.0 °F - 50.0 °F 100% 30.11 in 5.0 mi North 5.8 mph - N/A   Overcast
3:47 AM 50.0 °F - 50.0 °F 100% 30.11 in 5.0 mi North 3.5 mph - N/A   Overcast
3:49 AM 50.0 °F - 50.0 °F 100% 30.10 in 5.0 mi NNE 3.5 mph - N/A   Overcast
3:54 AM 50.0 °F - 50.0 °F 100% 30.10 in 5.0 mi Calm Calm - N/A   Overcast
3:55 AM 49.3 °F - 49.3 °F 100% 30.10 in 5.0 mi Calm Calm - 0.00 in   Overcast
3:59 AM 50.0 °F - 50.0 °F 100% 30.10 in 5.0 mi North 3.5 mph - N/A   Overcast
4:01 AM 50.0 °F - 50.0 °F 100% 30.10 in 5.0 mi Calm Calm - N/A   Overcast
4:02 AM 50.0 °F - 50.0 °F 100% 30.10 in 5.0 mi NNE 3.5 mph - N/A   Overcast
4:21 AM 50.0 °F - 50.0 °F 100% 30.11 in 6.0 mi Calm Calm - N/A   Overcast
4:24 AM 50.0 °F - 50.0 °F 100% 30.11 in 6.0 mi Calm Calm - N/A Rain Light Rain
4:32 AM 50.0 °F - 50.0 °F 100% 30.10 in 6.0 mi Calm Calm - N/A Rain Light Rain
4:35 AM 50.0 °F - 50.0 °F 100% 30.10 in 6.0 mi Calm Calm - N/A   Light Drizzle
4:46 AM 50.0 °F - 50.0 °F 100% 30.10 in 6.0 mi Calm Calm - N/A   Overcast
4:52 AM 50.0 °F - 50.0 °F 100% 30.11 in 6.0 mi WNW 3.5 mph - N/A Rain Light Rain
4:53 AM 50.0 °F - 50.0 °F 100% 30.11 in 6.0 mi WNW 3.5 mph - N/A Rain Light Rain
4:55 AM 49.5 °F - 49.5 °F 100% 30.11 in 6.0 mi West 3.5 mph - 0.00 in Rain Light Rain
5:00 AM 50.0 °F - 50.0 °F 100% 30.11 in 6.0 mi West 4.6 mph - N/A Rain Light Rain
5:04 AM 50.0 °F - 50.0 °F 100% 30.11 in 7.0 mi West 3.5 mph - N/A Rain Light Rain
5:06 AM 50.0 °F - 50.0 °F 100% 30.10 in 6.0 mi West 3.5 mph - N/A Rain Light Rain
5:14 AM 50.0 °F - 50.0 °F 100% 30.10 in 2.5 mi Calm Calm - N/A Rain Rain
5:15 AM 50.0 °F - 50.0 °F 100% 30.10 in 2.5 mi SW 3.5 mph - N/A Rain Rain
5:16 AM 50.0 °F - 50.0 °F 100% 30.10 in 2.5 mi Calm Calm - N/A Rain Light Rain
5:18 AM 50.0 °F - 50.0 °F 100% 30.10 in 3.0 mi Calm Calm - N/A Rain Light Rain
5:32 AM 50.0 °F - 50.0 °F 100% 30.09 in 5.0 mi South 4.6 mph - N/A Rain Light Rain
5:42 AM 50.0 °F - 50.0 °F 100% 30.09 in 4.0 mi Calm Calm - N/A Rain Light Rain
5:48 AM 50.0 °F - 50.0 °F 100% 30.09 in 4.0 mi Calm Calm - N/A Rain Light Rain
5:51 AM 50.0 °F - 50.0 °F 100% 30.09 in 5.0 mi Calm Calm - N/A Rain Light Rain
5:52 AM 50.0 °F - 50.0 °F 100% 30.09 in 5.0 mi Calm Calm - N/A Rain Light Rain
5:55 AM 49.6 °F - 49.6 °F 100% 30.09 in 5.0 mi Calm Calm - 0.12 in Rain Light Rain
6:00 AM 50.0 °F - 50.0 °F 100% 30.09 in 4.0 mi SE 4.6 mph - N/A Rain Light Rain
6:03 AM 50.0 °F - 50.0 °F 100% 30.08 in 4.0 mi SE 4.6 mph - N/A Rain Light Rain
6:07 AM 50.0 °F - 50.0 °F 100% 30.08 in 3.0 mi East 5.8 mph - N/A Rain Light Rain
6:13 AM 50.0 °F - 50.0 °F 100% 30.09 in 3.0 mi Calm Calm - N/A Rain Light Rain
6:15 AM 50.0 °F - 50.0 °F 100% 30.09 in 2.5 mi NE 3.5 mph - N/A Rain Light Rain
6:18 AM 50.0 °F - 50.0 °F 100% 30.10 in 3.0 mi Calm Calm - N/A Rain Rain
6:24 AM 50.0 °F - 50.0 °F 100% 30.10 in 4.0 mi Calm Calm - N/A Rain Light Rain
6:25 AM 50.0 °F - 50.0 °F 100% 30.10 in 4.0 mi Calm Calm - N/A Rain Light Rain
6:26 AM 50.0 °F - 50.0 °F 100% 30.10 in 4.0 mi Calm Calm - N/A Rain Light Rain
6:28 AM 50.0 °F - 50.0 °F 100% 30.11 in 4.0 mi Calm Calm - N/A Rain Light Rain
6:36 AM 50.0 °F - 50.0 °F 100% 30.10 in 5.0 mi Calm Calm - N/A   Overcast
6:55 AM 49.6 °F - 49.6 °F 100% 30.11 in 1.5 mi SSW 3.5 mph - 0.04 in   Overcast
7:25 AM 50.0 °F - 50.0 °F 100% 30.14 in 1.5 mi WNW 5.8 mph - N/A   Overcast
7:37 AM 50.0 °F - 50.0 °F 100% 30.16 in 1.5 mi NNW 6.9 mph - N/A Rain Light Rain
7:50 AM 50.0 °F - 50.0 °F 100% 30.17 in 1.5 mi NW 5.8 mph - N/A Rain Light Rain
7:55 AM 50.2 °F - 50.2 °F 100% 30.16 in 1.5 mi NNW 4.6 mph - 0.02 in Rain Light Rain
8:06 AM 50.0 °F - 50.0 °F 100% 30.16 in 3.0 mi Calm Calm - N/A Rain Rain
8:18 AM 50.0 °F - 50.0 °F 100% 30.17 in 3.0 mi Calm Calm - N/A Rain Light Rain
8:40 AM 50.0 °F - 50.0 °F 100% 30.17 in 3.0 mi West 3.5 mph - N/A   Overcast
8:48 AM 51.8 °F - 50.0 °F 94% 30.17 in 5.0 mi West 3.5 mph - N/A   Overcast
8:55 AM 51.3 °F - 50.9 °F 99% 30.17 in 5.0 mi WNW 5.8 mph - 0.05 in   Overcast
9:26 AM 51.8 °F - 51.8 °F 100% 30.16 in 6.0 mi NW 8.1 mph - N/A   Light Drizzle
9:35 AM 51.8 °F - 51.8 °F 100% 30.17 in 6.0 mi WNW 5.8 mph - N/A   Overcast
9:52 AM 51.8 °F - 51.8 °F 100% 30.17 in 6.0 mi WNW 4.6 mph - N/A   Light Drizzle
9:55 AM 52.2 °F - 52.0 °F 99% 30.17 in 6.0 mi WNW 4.6 mph - 0.00 in   Light Drizzle
10:02 AM 51.8 °F - 51.8 °F 100% 30.17 in 6.0 mi NNW 4.6 mph - N/A   Overcast
10:07 AM 51.8 °F - 51.8 °F 100% 30.17 in 6.0 mi NW 4.6 mph - N/A   Light Drizzle
10:20 AM 53.6 °F - 51.8 °F 94% 30.17 in 7.0 mi NW 5.8 mph - N/A   Overcast
10:55 AM 54.3 °F - 53.4 °F 97% 30.18 in 10.0 mi NNW 8.1 mph - 0.00 in   Overcast
11:15 AM 55.4 °F - 53.6 °F 94% 30.18 in 10.0 mi NNW 10.4 mph - N/A   Overcast
11:55 AM 55.6 °F - 50.4 °F 83% 30.18 in 10.0 mi NNW 12.7 mph - N/A   Overcast
12:55 PM 57.7 °F - 48.2 °F 70% 30.17 in 10.0 mi North 15.0 mph - N/A   Overcast
1:55 PM 58.6 °F - 42.6 °F 55% 30.15 in 10.0 mi NNW 15.0 mph - N/A   Overcast
2:55 PM 61.7 °F - 38.7 °F 43% 30.13 in 10.0 mi North 13.8 mph - N/A   Partly Cloudy
3:55 PM 62.2 °F - 36.7 °F 39% 30.12 in 10.0 mi North 20.7 mph 24.2 mph N/A   Clear
4:55 PM 63.1 °F - 39.0 °F 41% 30.11 in 10.0 mi North 18.4 mph - N/A   Clear
5:55 PM 61.3 °F - 38.3 °F 43% 30.14 in 10.0 mi North 9.2 mph - N/A   Clear
6:55 PM 55.8 °F - 36.0 °F 47% 30.17 in 10.0 mi North 4.6 mph - N/A   Clear
7:55 PM 52.9 °F - 37.4 °F 56% 30.21 in 10.0 mi WNW 4.6 mph - N/A   Clear
8:55 PM 51.4 °F - 37.9 °F 60% 30.24 in 10.0 mi Calm Calm - N/A   Clear
9:55 PM 45.3 °F 42.3 °F 39.9 °F 81% 30.28 in 10.0 mi North 5.8 mph - N/A   Clear
10:55 PM 43.2 °F 37.4 °F 39.2 °F 86% 30.30 in 10.0 mi NNW 10.4 mph - N/A   Clear
11:55 PM 44.8 °F 39.4 °F 36.7 °F 73% 30.30 in 10.0 mi North 10.4 mph - N/A   Clear